Location: Gallinara
(44.0333°N, 8.2333°E)
Time: 16:44:52
(UTC+00:00)

Cosmos 1844 Rocket - Pass Details

Date: 25 September 2020
Orbit: 823 x 846 km, 71.0° (Epoch: 30 October)

Event Time Altitude Azimuth Distance (km) Brightness Sun altitude
Rises 02:45:30 0° 340° (NNW) 3,396 6.0 -27.2°
Reaches altitude 10° 02:48:12 10° 350° (N) 2,462 5.3 -26.8°
Maximum altitude 02:53:18 34° 55° (NE) 1,361 4.3 -26.0°
Drops below altitude 10° 02:58:24 10° 119° (ESE) 2,460 5.5 -25.2°
Sets 03:01:04 0° 129° (SE) 3,394 6.2 -24.7°
